Find Starlink 30948

NORAD ID: 58525 Int'l Des: 2023-191 Owner: SPXS Country: US Constellation: starlink operational
LEOCIRCULAR

当前视图

正在加载3D地球...

About Starlink 30948

Starlink 30948 (NORAD 58525) is a starlink constellation satellite (v2 mini) launched Dec 7, 2023 by SPXS of US. It operates in LEO, CIRCULAR orbit with a mass of 730.00 kg.

关于 Starlink 30948

正在加载描述...

即将过境

Passes for default location (London). Set your location on the main map for personalized predictions.

高度历史

Loading altitude history...

两行轨道根数

1 58525U 23191T 26166.96737442 .00009556 00000-0 35656-3 0 9997
2 58525 42.9991 268.2421 0001084 271.7295 88.3432 15.27559095140508
Epoch: Jun 15, 2026 • Age: 16 hours

当前状态

高度 486.6 km
速度 7.63 km/s
星下点 41.71°N, 157.2°W
发射日期 Dec 7, 2023
运行时间 2.5 years
类型 internet

技术详情

分类 Payload
质量 730.00 kg
干质量 700.00 kg
总质量 730.00 kg
长度 0.30 m
直径 4.10 m
跨度 29.00 m
形状 Box + pan
制造商 SPXS
平台类型 Starlink V2M
阶段状态 In Orbit
所有者/国家 SPXS/US

Most Searched